Location: Bruderhein
(53.8035°N, 112.9265°W)
Time: 01:51:47
(UTC+00:00)

BEESAT - Pass Details

Date: 06 April 2023
Orbit: 696 x 706 km, 98.5° (Epoch: 31 May)

Event Time Altitude Azimuth Distance (km) Brightness Sun altitude
Rises 03:51:50 0° 23° (NNE) 3,112 ? -14.0°
Reaches altitude 10° 03:54:26 10° 36° (NE) 2,187 ? -14.4°
Maximum altitude 03:58:27 26° 93° (E) 1,371 ? -14.8°
Enters shadow 03:59:32 24° 115° (ESE) 1,444 ? -15.0°
